PERSEUS-M2

Last updated on Fri Dec 19 2025 00:03:50 GMT+0000 (Coordinated Universal Time)

1 40037U 14033AD 25352.63733259 .00001107 00000+0 10741-3 0 9994 2 40037 97.9752 294.8440 0011829 172.0302 188.1108 14.94715421623806
UTC large
Height (km)
Speed (km/s)
/
Latitude / Longitude
Inclination (degrees)
Orbital Period (minutes)
Azimuth
Elevation
Range (km)
Doppler Factor

Next 0 passes for location: London (51.5072 / 0.1276)

Sorry there are no passes over London.